SCP
0 0 0 0 0 1 1 1 1 0 1 2 1 1 0 0 0 0 0 0 0 0 1 0 0 1 1 1 1 1 1 1 0 0 0 0 0 0 0 0 0 0 0
0 0 0 1 1 2 2 1 2 2 2 2 2 1 0 0 0 0 1 1 1 1 1 1 1 1 1 1 1 1 0 0 0 0 0 0 0 0 0 0 0 0 0
0 0 0 1 1 2 4 4 3 7 4 3 3 2 1 1 1 0 1 1 1 1 1 1 1 1 1 1 1 0 0 0 0 0 0 0 0 0 0 0 0 0 0
0 0 0 0 0 0 1 1 3 5 7 5 4 2 2 1 1 1 1 2 2 3 3 3 2 2 1 0 0 0 0 0 0 0 0 0 0 0 0 0 0 0 0
0 0 0 0 0 0 0 0 2 4 4 3 6 4 2 2 3 2 4 4 6 5 4 3 3 1 0 0 0 0 0 0 0 0 0 0 0 0 0 0 0 0 0
0 0 0 0 0 0 0 0 0 2 1 0 0 1 1 1 5 4 7 7 7 5 4 3 2 0 0 0 0 0 0 0 0 0 0 0 0 0 0 0 0 0 0
0 0 0 0 0 -0 0 0 0 0 0 0 0 0 0 -0 0 5 10 7 5 4 3 2 1 0 0 0 0 0 0 0 0 0 0 0 0 0 0 0 0 0 0
0 0 0 0 0 0 -0 0 0 0 0 0 0 0 0 -0 -0 2 7 6 5 3 2 1 0 0 0 0 0 0 0 0 0 0 0 0 0 0 0 0 0 0 0
0 0 0 -0 -0 0 0 0 0 0 0 0 -0 -0 0 0 -0 -0 3 4 4 2 0 0 0 0 0 0 0 0 0 0 0 0 0 0 0 0 0 0 0 0 0
0 0 -0 -0 -0 -0 -0 0 0 0 0 0 0 0 0 -1 0 0 2 3 2 0 0 0 0 0 0 0 0 0 0 0 0 0 0 0 0 0 0 0 0 0 0
-0 -0 -0 -0 -0 -0 -0 -0 0 0 0 0 0 0 0 0 1 1 2 2 0 0 0 0 0 0 0 0 0 0 0 0 0 0 0 0 0 0 0 0 0 0 0
-0 -0 -0 -0 -0 -0 -0 -0 -0 0 0 0 0 0 0 0 2 1 1 0 0 0 0 0 0 0 0 0 0 0 0 0 0 0 0 0 0 0 0 0 0 0 0
-0 -0 -0 -0 -0 -0 -0 -0 -0 -0 0 0 0 0 0 0 0 1 0 0 0 0 0 0 0 0 0 0 0 0 0 0 0 0 0 0 0 0 0 0 0 0 0
-0 -0 -0 0 0 -0 -0 -0 -0 -0 0 0 0 0 0 0 0 0 0 0 0 0 0 0 0 0 0 0 0 0 0 0 0 0 0 0 0 0 0 0 0 0 0
-0 -0 -0 -0 -0 -0 -0 -0 -0 -0 0 0 0 0 0 0 0 0 0 0 0 0 0 0 0 0 0 0 0 0 0 0 0 0 0 0 0 0 0 0 0 0 0
0 0 0 0 0 0 -0 -0 -0 -0 -0 0 0 0 0 0 0 0 0 0 0 0 0 0 0 0 0 0 0 0 0 0 0 0 0 0 0 0 0 0 0 0 0
0 0 0 0 0 0 0 0 0 0 0 0 0 0 0 0 0 0 0 0 0 0 0 0 0 0 0 0 0 0 0 0 0 0 0 0 0 0 0 0 0 0 0
-0 0 0 -0 -0 -0 0 0 0 0 0 0 0 0 0 0 0 0 0 0 0 0 0 0 0 0 0 0 0 0 0 0 0 0 0 0 0 0 0 0 0 0 0
-0 -0 -0 0 0 0 -0 0 0 0 0 0 0 0 0 0 0 0 0 0 0 0 0 0 0 0 0 0 0 0 0 0 0 0 0 0 0 0 0 0 0 0 0
0 -0 0 0 0 0 0 0 0 0 0 0 0 0 0 0 0 0 0 0 0 0 0 0 0 0 0 0 0 0 0 0 0 0 0 0 0 0 0 0 0 0 0
0 -0 -0 0 0 0 0 0 0 0 0 0 0 0 0 0 0 0 0 0 0 0 0 0 0 0 0 0 0 0 0 0 0 0 0 0 0 0 0 0 0 0 0
0 0 0 0 0 0 0 0 0 -0 -0 0 0 0 0 0 0 0 0 0 0 0 0 0 0 0 0 0 0 0 0 0 0 0 0 0 0 0 0 0 0 0 0
0 0 0 0 0 0 0 0 -0 0 -0 -0 0 0 0 0 0 0 0 0 0 0 0 0 0 0 0 0 0 0 0 0 0 0 0 0 0 0 0 0 0 0 0
0 0 0 0 -0 -0 -0 0 0 -0 -0 -0 0 0 0 0 0 0 0 0 0 0 0 0 0 0 0 0 0 0 0 0 0 0 0 0 0 0 0 0 0 0 0
0 0 0 0 0 0 0 0 0 0 0 0 0 0 0 -0 -0 -0 0 -0 -0 -0 -0 0 0 0 0 0 0 0 0 0 0 0 0 0 0 0 0 0 0 0 0
0 0 0 0 0 0 0 0 0 0 0 0 0 0 0 0 -0 -0 -0 -0 -0 -0 -0 -0 -0 0 -0 0 0 0 0 0 0 0 0 0 0 0 0 0 0 0 0
Wind_Speed_500mb
71 80 87 88 85 85 84 87 85 80 75 70 68 76 79 73 66 62 57 53 50 43 37 40 38 40 39 40 34 32 27 22 16 16 22 12 5 12 8 1 12 9 13
10 50 90 95 94 93 91 94 96 90 86 82 74 75 74 76 72 66 65 64 59 53 45 42 37 33 37 35 27 24 19 19 14 12 8 14 22 13 13 11 7 13 14
93 88 56 6 57 91 96 96 99 101 95 92 83 75 73 71 70 67 73 73 68 62 53 46 44 40 39 31 27 22 16 23 11 4 5 12 9 29 15 13 9 14 14
85 96 97 93 48 21 40 41 69 102 105 103 98 91 86 85 86 83 76 79 73 69 56 53 54 48 43 37 29 23 19 24 22 16 13 10 11 7 7 7 7 3 10
83 87 88 88 95 88 39 28 33 49 55 64 103 99 92 88 82 80 76 81 81 76 65 62 58 57 47 41 32 26 26 29 32 29 25 22 15 13 13 14 20 10 7
83 84 83 87 84 98 89 68 22 37 68 62 43 35 34 46 75 71 81 83 88 85 72 68 66 62 55 46 34 30 28 27 32 30 24 25 24 18 13 8 8 13 5
83 86 83 89 84 88 95 88 62 26 29 86 86 62 47 96 85 75 80 90 89 83 78 76 67 65 57 51 41 36 31 28 31 28 22 18 15 12 9 4 5 9 3
98 99 85 85 81 82 83 87 83 44 39 16 59 106 77 99 105 83 83 92 91 85 76 77 74 67 63 53 43 36 31 31 29 29 23 20 14 9 8 8 6 5 8
91 92 89 88 82 79 79 77 82 80 63 44 39 52 47 99 140 95 87 85 91 84 83 75 73 63 57 50 43 36 33 32 32 32 29 25 15 13 10 8 9 8 8
89 90 93 89 71 81 65 60 61 66 75 70 54 41 47 77 69 57 76 74 74 82 88 73 67 58 53 46 41 36 35 38 37 33 31 22 17 13 10 8 12 12 13
98 98 95 91 84 82 80 71 64 64 62 71 72 62 55 53 48 57 66 72 77 90 78 64 62 61 59 54 50 40 41 40 37 31 25 23 18 14 11 11 12 14 19
98 102 102 105 105 92 90 81 90 79 77 76 82 77 66 54 46 50 68 76 86 82 74 67 64 63 59 59 54 47 44 40 35 30 25 20 14 11 12 14 14 20 24
90 98 112 120 121 121 111 92 85 83 78 77 85 85 74 63 46 62 57 67 75 79 70 60 63 65 62 62 49 44 44 40 38 32 24 21 15 16 14 15 17 25 26
89 95 104 112 120 124 123 110 91 94 80 76 78 86 84 68 53 61 66 63 79 76 64 60 64 65 62 56 52 49 48 44 38 31 22 19 16 16 16 22 20 24 29
96 98 102 105 109 113 125 125 114 99 90 83 75 75 77 68 53 58 77 65 74 71 66 66 61 57 55 59 58 55 51 42 35 24 22 20 14 18 20 18 22 30 28
80 85 92 97 108 116 110 114 116 116 97 87 82 72 69 56 48 77 80 84 78 72 67 67 70 63 63 60 55 52 45 36 27 23 17 16 18 17 16 20 26 27 26
71 79 85 89 95 104 103 101 97 94 97 93 81 68 58 47 52 78 79 89 84 76 76 73 75 72 61 51 46 39 31 24 21 19 18 15 18 22 23 28 25 27 26
66 76 87 85 93 99 97 94 79 71 83 80 78 65 62 53 72 84 88 84 81 83 84 75 72 70 62 52 44 32 23 22 19 13 13 18 21 26 26 25 24 32 32
64 60 72 76 82 104 100 91 88 76 76 82 66 48 53 48 77 97 101 98 97 90 77 76 64 54 47 37 30 25 21 18 16 16 21 22 28 29 33 33 33 31 31
51 65 76 71 79 89 92 94 89 83 79 79 75 54 17 43 63 55 105 99 98 90 77 62 50 39 34 29 24 20 16 13 15 24 20 23 27 33 41 39 38 40 40
59 66 70 75 73 78 100 97 91 81 79 67 70 77 76 70 62 56 45 99 82 75 62 52 42 33 23 19 12 5 4 10 10 14 19 23 29 37 38 40 43 45 47
60 62 72 73 74 73 82 92 88 86 67 70 76 68 68 86 95 80 63 84 70 69 61 51 44 29 19 10 8 13 18 18 12 13 28 39 42 41 45 43 35 27 27
56 60 58 73 65 76 69 75 84 76 76 71 65 80 76 87 68 60 63 62 54 59 53 42 43 35 23 15 9 13 15 19 20 21 20 22 24 21 15 10 12 16 20
56 61 54 58 71 65 66 58 65 65 72 77 71 69 80 89 70 80 77 61 50 34 41 41 45 26 15 10 12 19 26 30 26 23 19 21 17 8 10 13 14 15 21
51 54 56 59 59 65 63 59 59 60 61 55 58 63 67 63 78 86 60 64 57 39 37 28 20 8 8 14 17 19 19 17 19 16 13 8 2 10 13 16 21 24 25
48 53 64 59 60 69 56 63 51 67 51 60 47 56 55 56 62 47 46 44 35 40 48 47 42 34 36 30 25 24 24 16 20 16 10 7 6 11 20 23 26 29 26
Wind_Direction_500mb
211 206 204 204 208 209 211 211 213 222 220 218 220 214 219 215 217 215 223 233 236 228 224 216 215 224 228 239 246 247 253 258 261 275 296 26 173 127 92 222 303 319 351
21 225 209 206 208 214 217 215 214 218 221 220 223 223 220 219 220 218 217 228 232 235 234 218 216 220 226 230 232 235 250 238 234 266 317 99 129 102 122 87 72 32 20
36 34 44 312 223 217 218 220 218 217 221 225 221 222 223 221 223 222 219 225 230 231 239 227 224 222 222 224 225 231 231 200 172 199 165 145 155 119 115 96 56 57 24
33 39 38 38 32 305 263 252 229 220 221 222 222 219 221 220 225 226 221 221 228 230 230 229 224 224 222 225 221 229 216 195 170 163 161 147 130 162 215 223 333 13 347
27 30 32 31 27 27 5 274 251 243 235 242 226 224 219 226 226 226 228 222 223 225 225 231 227 223 222 218 217 221 198 194 200 190 165 163 170 172 223 275 305 305 343
19 21 25 28 25 20 20 23 299 270 238 234 261 220 241 272 228 222 227 223 220 221 229 230 224 222 221 217 214 210 205 198 206 207 207 197 191 201 223 240 290 332 133
14 10 20 21 22 19 17 18 16 330 254 246 292 266 273 301 263 235 229 224 222 220 227 228 218 217 214 214 213 209 209 203 204 207 201 199 194 188 193 240 293 329 298
8 7 17 22 21 18 13 10 11 25 345 268 232 255 285 282 282 251 237 231 229 224 236 234 216 218 210 208 207 202 204 200 195 191 196 201 196 187 187 217 263 286 300
3 360 4 12 14 22 18 5 0 357 1 337 282 252 292 299 247 249 241 236 239 234 239 239 224 211 207 204 201 203 204 196 193 187 191 201 195 193 219 220 252 286 296
1 357 354 357 2 2 358 360 4 360 352 349 348 310 278 275 284 262 243 238 237 241 234 219 215 205 202 196 197 198 197 194 191 185 182 198 200 212 228 245 242 248 268
351 349 345 344 348 352 350 337 334 335 332 330 330 328 313 296 274 259 250 240 235 226 224 217 213 210 196 192 192 201 201 198 196 190 190 199 208 217 227 250 263 271 269
351 347 344 338 338 342 341 341 323 321 319 315 315 315 315 310 306 280 248 236 221 214 215 210 207 203 195 192 195 194 199 200 195 202 202 214 222 231 245 262 285 292 289
353 350 346 344 339 336 338 339 338 325 315 311 306 306 305 314 306 276 256 240 219 213 210 208 201 192 190 192 191 194 192 196 199 203 206 221 231 247 269 280 293 303 297
353 351 348 345 342 338 335 336 333 327 323 313 304 301 301 307 299 273 241 233 217 214 210 202 196 191 190 189 187 189 194 196 203 214 217 223 242 264 274 290 300 303 304
353 351 349 345 343 342 338 331 332 332 325 316 305 298 293 297 285 264 236 236 215 208 199 195 192 188 186 184 183 191 199 205 207 210 220 232 250 265 273 290 302 306 312
348 346 349 348 349 348 341 338 332 330 329 321 310 298 290 288 278 237 237 209 199 192 186 179 184 183 181 187 192 199 202 200 205 213 224 245 248 257 276 292 296 297 306
349 352 350 347 350 354 351 345 335 332 334 324 317 308 286 267 237 212 196 188 182 179 174 179 181 177 181 184 193 196 195 199 211 217 230 246 266 271 279 279 271 291 295
349 345 345 347 359 0 355 354 350 353 350 339 323 309 290 254 212 209 183 172 169 172 172 173 175 179 174 178 186 196 203 215 217 227 244 254 259 271 275 272 280 285 292
345 352 356 354 355 360 3 358 359 4 10 8 359 328 307 259 189 177 175 170 169 168 169 172 171 176 170 178 192 197 201 217 234 247 282 262 263 268 260 271 280 278 286
1 2 2 358 2 360 5 6 3 7 11 18 20 34 70 140 142 147 167 164 172 162 161 156 157 159 170 179 188 203 224 235 259 276 257 260 262 258 257 266 273 277 281
2 1 2 5 4 358 11 11 12 8 17 21 29 52 68 75 100 113 101 146 147 150 147 152 146 151 154 151 163 193 290 290 271 238 259 251 253 255 260 269 276 279 278
358 359 358 1 3 6 8 13 11 13 9 16 38 46 51 71 78 84 77 85 100 101 108 112 110 106 97 73 8 334 321 313 295 252 242 256 261 273 280 282 285 287 285
3 6 357 7 8 8 11 12 15 9 20 26 29 42 48 58 67 72 73 73 76 85 93 94 88 93 99 91 52 3 345 327 316 272 255 262 282 283 284 301 313 314 309
4 1 5 5 8 10 14 9 15 16 22 25 26 35 41 55 54 59 55 59 55 65 89 87 90 110 87 38 347 321 315 304 293 292 292 295 301 299 317 309 299 300 305
7 5 12 14 7 11 17 19 14 18 21 27 30 29 32 36 40 49 56 60 64 57 63 57 65 40 345 349 341 346 340 322 307 313 310 295 273 324 281 286 299 289 288
13 14 13 18 15 10 16 20 16 17 26 30 35 40 41 38 40 45 49 51 59 56 47 46 55 55 26 14 1 3 12 4 355 354 17 64 360 299 301 307 309 312 322
Wind_Speed_850mb
71 80 87 88 85 85 84 87 85 80 75 70 68 76 79 73 66 62 57 53 50 43 37 40 38 40 39 40 34 32 27 22 16 16 22 12 5 12 8 1 12 9 13
10 50 90 95 94 93 91 94 96 90 86 82 74 75 74 76 72 66 65 64 59 53 45 42 37 33 37 35 27 24 19 19 14 12 8 14 22 13 13 11 7 13 14
93 88 56 6 57 91 96 96 99 101 95 92 83 75 73 71 70 67 73 73 68 62 53 46 44 40 39 31 27 22 16 23 11 4 5 12 9 29 15 13 9 14 14
85 96 97 93 48 21 40 41 69 102 105 103 98 91 86 85 86 83 76 79 73 69 56 53 54 48 43 37 29 23 19 24 22 16 13 10 11 7 7 7 7 3 10
83 87 88 88 95 88 39 28 33 49 55 64 103 99 92 88 82 80 76 81 81 76 65 62 58 57 47 41 32 26 26 29 32 29 25 22 15 13 13 14 20 10 7
83 84 83 87 84 98 89 68 22 37 68 62 43 35 34 46 75 71 81 83 88 85 72 68 66 62 55 46 34 30 28 27 32 30 24 25 24 18 13 8 8 13 5
83 86 83 89 84 88 95 88 62 26 29 86 86 62 47 96 85 75 80 90 89 83 78 76 67 65 57 51 41 36 31 28 31 28 22 18 15 12 9 4 5 9 3
98 99 85 85 81 82 83 87 83 44 39 16 59 106 77 99 105 83 83 92 91 85 76 77 74 67 63 53 43 36 31 31 29 29 23 20 14 9 8 8 6 5 8
91 92 89 88 82 79 79 77 82 80 63 44 39 52 47 99 140 95 87 85 91 84 83 75 73 63 57 50 43 36 33 32 32 32 29 25 15 13 10 8 9 8 8
89 90 93 89 71 81 65 60 61 66 75 70 54 41 47 77 69 57 76 74 74 82 88 73 67 58 53 46 41 36 35 38 37 33 31 22 17 13 10 8 12 12 13
98 98 95 91 84 82 80 71 64 64 62 71 72 62 55 53 48 57 66 72 77 90 78 64 62 61 59 54 50 40 41 40 37 31 25 23 18 14 11 11 12 14 19
98 102 102 105 105 92 90 81 90 79 77 76 82 77 66 54 46 50 68 76 86 82 74 67 64 63 59 59 54 47 44 40 35 30 25 20 14 11 12 14 14 20 24
90 98 112 120 121 121 111 92 85 83 78 77 85 85 74 63 46 62 57 67 75 79 70 60 63 65 62 62 49 44 44 40 38 32 24 21 15 16 14 15 17 25 26
89 95 104 112 120 124 123 110 91 94 80 76 78 86 84 68 53 61 66 63 79 76 64 60 64 65 62 56 52 49 48 44 38 31 22 19 16 16 16 22 20 24 29
96 98 102 105 109 113 125 125 114 99 90 83 75 75 77 68 53 58 77 65 74 71 66 66 61 57 55 59 58 55 51 42 35 24 22 20 14 18 20 18 22 30 28
80 85 92 97 108 116 110 114 116 116 97 87 82 72 69 56 48 77 80 84 78 72 67 67 70 63 63 60 55 52 45 36 27 23 17 16 18 17 16 20 26 27 26
71 79 85 89 95 104 103 101 97 94 97 93 81 68 58 47 52 78 79 89 84 76 76 73 75 72 61 51 46 39 31 24 21 19 18 15 18 22 23 28 25 27 26
66 76 87 85 93 99 97 94 79 71 83 80 78 65 62 53 72 84 88 84 81 83 84 75 72 70 62 52 44 32 23 22 19 13 13 18 21 26 26 25 24 32 32
64 60 72 76 82 104 100 91 88 76 76 82 66 48 53 48 77 97 101 98 97 90 77 76 64 54 47 37 30 25 21 18 16 16 21 22 28 29 33 33 33 31 31
51 65 76 71 79 89 92 94 89 83 79 79 75 54 17 43 63 55 105 99 98 90 77 62 50 39 34 29 24 20 16 13 15 24 20 23 27 33 41 39 38 40 40
59 66 70 75 73 78 100 97 91 81 79 67 70 77 76 70 62 56 45 99 82 75 62 52 42 33 23 19 12 5 4 10 10 14 19 23 29 37 38 40 43 45 47
60 62 72 73 74 73 82 92 88 86 67 70 76 68 68 86 95 80 63 84 70 69 61 51 44 29 19 10 8 13 18 18 12 13 28 39 42 41 45 43 35 27 27
56 60 58 73 65 76 69 75 84 76 76 71 65 80 76 87 68 60 63 62 54 59 53 42 43 35 23 15 9 13 15 19 20 21 20 22 24 21 15 10 12 16 20
56 61 54 58 71 65 66 58 65 65 72 77 71 69 80 89 70 80 77 61 50 34 41 41 45 26 15 10 12 19 26 30 26 23 19 21 17 8 10 13 14 15 21
51 54 56 59 59 65 63 59 59 60 61 55 58 63 67 63 78 86 60 64 57 39 37 28 20 8 8 14 17 19 19 17 19 16 13 8 2 10 13 16 21 24 25
48 53 64 59 60 69 56 63 51 67 51 60 47 56 55 56 62 47 46 44 35 40 48 47 42 34 36 30 25 24 24 16 20 16 10 7 6 11 20 23 26 29 26
Wind_Direction_850mb
211 206 204 204 208 209 211 211 213 222 220 218 220 214 219 215 217 215 223 233 236 228 224 216 215 224 228 239 246 247 253 258 261 275 296 26 173 127 92 222 303 319 351
21 225 209 206 208 214 217 215 214 218 221 220 223 223 220 219 220 218 217 228 232 235 234 218 216 220 226 230 232 235 250 238 234 266 317 99 129 102 122 87 72 32 20
36 34 44 312 223 217 218 220 218 217 221 225 221 222 223 221 223 222 219 225 230 231 239 227 224 222 222 224 225 231 231 200 172 199 165 145 155 119 115 96 56 57 24
33 39 38 38 32 305 263 252 229 220 221 222 222 219 221 220 225 226 221 221 228 230 230 229 224 224 222 225 221 229 216 195 170 163 161 147 130 162 215 223 333 13 347
27 30 32 31 27 27 5 274 251 243 235 242 226 224 219 226 226 226 228 222 223 225 225 231 227 223 222 218 217 221 198 194 200 190 165 163 170 172 223 275 305 305 343
19 21 25 28 25 20 20 23 299 270 238 234 261 220 241 272 228 222 227 223 220 221 229 230 224 222 221 217 214 210 205 198 206 207 207 197 191 201 223 240 290 332 133
14 10 20 21 22 19 17 18 16 330 254 246 292 266 273 301 263 235 229 224 222 220 227 228 218 217 214 214 213 209 209 203 204 207 201 199 194 188 193 240 293 329 298
8 7 17 22 21 18 13 10 11 25 345 268 232 255 285 282 282 251 237 231 229 224 236 234 216 218 210 208 207 202 204 200 195 191 196 201 196 187 187 217 263 286 300
3 360 4 12 14 22 18 5 0 357 1 337 282 252 292 299 247 249 241 236 239 234 239 239 224 211 207 204 201 203 204 196 193 187 191 201 195 193 219 220 252 286 296
1 357 354 357 2 2 358 360 4 360 352 349 348 310 278 275 284 262 243 238 237 241 234 219 215 205 202 196 197 198 197 194 191 185 182 198 200 212 228 245 242 248 268
351 349 345 344 348 352 350 337 334 335 332 330 330 328 313 296 274 259 250 240 235 226 224 217 213 210 196 192 192 201 201 198 196 190 190 199 208 217 227 250 263 271 269
351 347 344 338 338 342 341 341 323 321 319 315 315 315 315 310 306 280 248 236 221 214 215 210 207 203 195 192 195 194 199 200 195 202 202 214 222 231 245 262 285 292 289
353 350 346 344 339 336 338 339 338 325 315 311 306 306 305 314 306 276 256 240 219 213 210 208 201 192 190 192 191 194 192 196 199 203 206 221 231 247 269 280 293 303 297
353 351 348 345 342 338 335 336 333 327 323 313 304 301 301 307 299 273 241 233 217 214 210 202 196 191 190 189 187 189 194 196 203 214 217 223 242 264 274 290 300 303 304
353 351 349 345 343 342 338 331 332 332 325 316 305 298 293 297 285 264 236 236 215 208 199 195 192 188 186 184 183 191 199 205 207 210 220 232 250 265 273 290 302 306 312
348 346 349 348 349 348 341 338 332 330 329 321 310 298 290 288 278 237 237 209 199 192 186 179 184 183 181 187 192 199 202 200 205 213 224 245 248 257 276 292 296 297 306
349 352 350 347 350 354 351 345 335 332 334 324 317 308 286 267 237 212 196 188 182 179 174 179 181 177 181 184 193 196 195 199 211 217 230 246 266 271 279 279 271 291 295
349 345 345 347 359 0 355 354 350 353 350 339 323 309 290 254 212 209 183 172 169 172 172 173 175 179 174 178 186 196 203 215 217 227 244 254 259 271 275 272 280 285 292
345 352 356 354 355 360 3 358 359 4 10 8 359 328 307 259 189 177 175 170 169 168 169 172 171 176 170 178 192 197 201 217 234 247 282 262 263 268 260 271 280 278 286
1 2 2 358 2 360 5 6 3 7 11 18 20 34 70 140 142 147 167 164 172 162 161 156 157 159 170 179 188 203 224 235 259 276 257 260 262 258 257 266 273 277 281
2 1 2 5 4 358 11 11 12 8 17 21 29 52 68 75 100 113 101 146 147 150 147 152 146 151 154 151 163 193 290 290 271 238 259 251 253 255 260 269 276 279 278
358 359 358 1 3 6 8 13 11 13 9 16 38 46 51 71 78 84 77 85 100 101 108 112 110 106 97 73 8 334 321 313 295 252 242 256 261 273 280 282 285 287 285
3 6 357 7 8 8 11 12 15 9 20 26 29 42 48 58 67 72 73 73 76 85 93 94 88 93 99 91 52 3 345 327 316 272 255 262 282 283 284 301 313 314 309
4 1 5 5 8 10 14 9 15 16 22 25 26 35 41 55 54 59 55 59 55 65 89 87 90 110 87 38 347 321 315 304 293 292 292 295 301 299 317 309 299 300 305
7 5 12 14 7 11 17 19 14 18 21 27 30 29 32 36 40 49 56 60 64 57 63 57 65 40 345 349 341 346 340 322 307 313 310 295 273 324 281 286 299 289 288
13 14 13 18 15 10 16 20 16 17 26 30 35 40 41 38 40 45 49 51 59 56 47 46 55 55 26 14 1 3 12 4 355 354 17 64 360 299 301 307 309 312 322